Simultaneous Nadir Overpasses (SNOs) Predictions

Prediction of SNOs between FY3D and LANDSAT-8 Satellite Orbit:

Table of predicted SNOs for the next 14.0 days since TLE Epoch: 10/1/2022
Index Date (FY3D) Time (FY3D) Lat,Lon (FY3D) SZA (FY3D ) Date (LANDSAT-8) Time (LANDSAT-8) Lat,Lon (LANDSAT-8) SZA (LANDSAT-8 ) Distance(km) Time Diff (sec)
1 10/01/2022 10:27:16 -72.64,-158.02 104.18 10/01/2022 10:28:26 -72.50,-156.80 104.31 43.50 70
2 10/01/2022 11:17:53 72.18, 10.22 75.38 10/01/2022 11:17:57 72.20, 10.29 75.40 3.16 4
3 10/01/2022 12:08:36 -72.07, 177.75 104.72 10/01/2022 12:07:27 -72.08, 177.71 104.72 1.58 69
4 10/04/2022 01:54:17 72.58, 150.39 76.78 10/04/2022 01:55:27 72.47, 151.39 76.68 35.42 70
5 10/04/2022 02:44:54 -72.16, -41.47 103.62 10/04/2022 02:45:00 -72.19, -41.49 103.59 3.21 6
6 10/04/2022 03:35:39 72.10, 125.95 76.34 10/04/2022 03:34:27 72.10, 125.99 76.33 1.56 72
7 10/06/2022 17:21:18 -72.61, 98.59 102.17 10/06/2022 17:22:28 -72.49, 99.68 102.27 38.46 70
8 10/06/2022 18:11:56 72.20, -93.27 77.44 10/06/2022 18:11:59 72.18, -93.24 77.43 1.84 3
9 10/06/2022 19:02:39 -72.09, 74.25 102.66 10/06/2022 19:01:29 -72.07, 74.19 102.68 3.10 70
10 10/09/2022 08:48:18 72.50, 47.08 78.73 10/09/2022 08:49:29 72.42, 47.79 78.66 25.35 71
11 10/09/2022 09:38:57 -72.19,-144.98 101.56 10/09/2022 09:39:01 -72.20,-144.98 101.55 1.06 4
12 10/09/2022 10:29:41 72.08, 22.54 78.35 10/09/2022 10:28:28 72.10, 22.49 78.36 2.69 73
13 10/12/2022 00:15:20 -72.55, -4.74 100.23 10/12/2022 00:16:31 -72.41, -3.97 100.34 29.42 71
14 10/12/2022 01:05:59 72.18, 163.30 79.44 10/12/2022 01:06:00 72.20, 163.29 79.46 2.46 1
15 10/12/2022 01:56:43 -72.13, -29.28 100.61 10/12/2022 01:55:30 -72.10, -29.27 100.64 3.38 73
16 10/14/2022 15:42:20 72.44, -56.26 80.67 10/14/2022 15:43:31 72.35, -55.84 80.58 17.55 71
17 10/14/2022 16:33:00 -72.18, 111.57 99.57 10/14/2022 16:33:02 -72.19, 111.51 99.57 2.24 2
18 10/14/2022 17:23:42 71.97, -80.71 80.24 10/14/2022 17:22:30 72.03, -81.13 80.28 16.07 72



Historial Predications of SNOs between FY3D and LANDSAT-8
